This is the latest recevied weather packets stored in our database for station/object KK7RJD. If no packets are shown the sender has not sent any weather packets the latest 10 day(s).
| Time | Temp. | Humidity | Pressure | Rain* | Wind** | Luminosity | Snow |
|---|---|---|---|---|---|---|---|
| 1777435330 | 6.11° C | 56% | 1019.9 hPa | 0 mm | - | 0 W/m² | - |
| 1777435030 | 6.11° C | 56% | 1019.7 hPa | 0 mm | - | 0 W/m² | - |
| 1777434726 | 6.67° C | 57% | 1019.7 hPa | 0 mm | - | 0 W/m² | - |
| 1777434425 | 6.67° C | 55% | 1019.5 hPa | 0 mm | - | 0 W/m² | - |
| 1777434124 | 6.67° C | 54% | 1019.4 hPa | 0 mm | - | 0 W/m² | - |
| 1777433820 | 6.67° C | 53% | 1019.2 hPa | 0 mm | - | 0 W/m² | - |
| 1777433517 | 6.67° C | 54% | 1019.2 hPa | 0 mm | - | 0 W/m² | - |
| 1777433211 | 6.67° C | 54% | 1019.2 hPa | 0 mm | - | 0 W/m² | - |
| 1777432909 | 6.67° C | 54% | 1019.2 hPa | 0 mm | - | 0 W/m² | - |
| 1777432608 | 5.56° C | 57% | 1019 hPa | 0 mm | - | 0 W/m² | - |
| 1777432305 | 6.11° C | 57% | 1018.6 hPa | 0 mm | - | 0 W/m² | - |
| 1777432004 | 6.11° C | 55% | 1018.5 hPa | 0 mm | - | 0 W/m² | - |
| 1777431701 | 6.67° C | 55% | 1018.3 hPa | 0 mm | - | 0 W/m² | - |
| 1777431397 | 6.67° C | 54% | 1018.3 hPa | 0 mm | - | 0 W/m² | - |
| 1777431093 | 6.67° C | 53% | 1018.4 hPa | 0 mm | - | 0 W/m² | - |
| 1777430789 | 6.67° C | 53% | 1018.2 hPa | 0 mm | - | 0 W/m² | - |
| 1777430486 | 7.22° C | 51% | 1017.9 hPa | 0 mm | - | 0 W/m² | - |
| 1777430180 | 7.22° C | 51% | 1018.3 hPa | 0 mm | - | 0 W/m² | - |
| 1777429876 | 7.78° C | 50% | 1018.1 hPa | 0 mm | - | 0 W/m² | - |
| 1777429573 | 7.78° C | 51% | 1018.1 hPa | 0 mm | - | 1 W/m² | - |
| 1777429269 | 7.22° C | 51% | 1018.1 hPa | 0 mm | - | 2 W/m² | - |
| 1777428964 | 7.78° C | 51% | 1017.7 hPa | 0 mm | - | 4 W/m² | - |
| 1777428661 | 7.78° C | 50% | 1017.8 hPa | 0 mm | - | 6 W/m² | - |
| 1777428357 | 8.33° C | 49% | 1017.5 hPa | 0 mm | - | 8 W/m² | - |
| 1777428052 | 8.33° C | 49% | 1017.5 hPa | 0 mm | - | 14 W/m² | - |
* Rain latest hour (hover to see other rain measurements)
** Current wind speed in m/s (hover to see current wind gust speed)